CZ-4C DEB, 44613

Orbit data source: Space-Track

CZ-4C DEB, 44613 is space debris in SSO originally from a launch on Tue, 14 Nov 2017 UTC launched from the Taiyaun Space Center, China (TSC). Debris objects in space refer to the collection of defunct objects orbiting the Earth. Examples of debris include non-operational satellites, rocket bodies, and fragments generated from explosions, collisions, or faulty payload assembly.

Loading next visibility...
Identifier
44613, 2017-072D
Orbit
SSO
Country
Flag of CNCN / PRC
Related business
Manufacturer
Unknown
Mission
Spacecraft
Bus & Motor
Unknown
Mass
Unknown
Launch date (UTC)
2017-11-14 (8 years ago)
Launch vehicle
Unknown
Launch site
Taiyaun Space Center, China (TSC)
Object type
Payload
Rocket body
Debris
Shape & HBR
Unknown shape, 0.1 m
Radar Cross Section
Small (<0.1 m²)

Expand to show TLE details & history
Last TLE update: 5 days ago

TLE from 5 days ago
0 CZ-4C DEB
1 44613U 17072D   26090.56938457  .00000487  00000-0  41445-3 0  9999
2 44613  98.5004 133.4478 0229624 199.4980 159.7284 13.80018146407235
Epoch: 2026-03-31T13:39Z
TLE epoch observation values (Epoch: 2026-03-31T13:39:54.826Z)
Latitude
-0.00004°
Longitude
99.52468°
Altitude
1,125.316 km
Speed
7.211 km/s
True Right ascension
08h 53m 47s
True Declination
0° 00' 00"
Sunlit
Object was in full shadow at epoch
Visualization orbit readout
Latitude
Unknown
Longitude
Unknown
Altitude
Unknown
Speed
Unknown
Apparent Right ascension
Unknown
Apparent Declination
Unknown
Sunlit
N/A
Visualization observer readout
Local Sidereal Time
22:51:13
Azimuth
Unknown
Elevation
Unknown
Doppler factor
Unknown
Orbital elements
Apogee altitude
1,129.547 km
Perigee altitude
792.498 km
Semi-major axis
7,339.16 km
Eccentricity
0.02296
Inclination
98.5004°
RAAN
133.4478°
Arg. of periapsis
199.498°
True anomaly
160.6161°
Mean anomaly
159.7284°
Eccentric anomaly
160.17461°
Mean motion
3.45202 °/min
Orbital period
104.29 mins
BSTAR
0.00041445
Loading maneuver chart data...
Computing Atmospheric mass density...
Loading historical data...
Loading historical data...
Loading historical data...
Loading historical data...
Loading historical data...
Loading historical data...
Loading historical data...
Other satellites on launch #72 in the year 2017 (2017-11-14 UTC)

Documentation

Showing up to 5 results
|